Location: Lesignano de� Bagni
(44.6500°N, 10.3000°E)
Time: 06:41:43
(UTC+00:00)

Cosmos 2218 Rocket - Pass Details

Date: 03 March 2021
Orbit: 955 x 1007 km, 82.9° (Epoch: 19 April)

Event Time Altitude Azimuth Distance (km) Brightness Sun altitude
Rises 18:46:50 0° 174° (S) 3,718 6.9 -18.1°
Reaches altitude 10° 18:49:22 10° 171° (S) 2,775 6.2 -18.5°
Maximum altitude 18:55:39 61° 93° (E) 1,131 4.0 -19.6°
Drops below altitude 10° 19:01:57 10° 15° (NNE) 2,788 6.4 -20.7°
Sets 19:04:30 0° 12° (NNE) 3,738 7.1 -21.2°
